Hallock, MN

1:35 PM CDT on September 29, 2016 (GMT -0500)
Hallock Municipal

Weather History for KHCO - August, 2013

Change the Weather History Date:

Thursday, August 8, 2013

  Actual Average Record
Temperature  
Mean Temperature 56 °F -  
Max Temperature 69 °F 81 °F 99 °F (1949)
Min Temperature 44 °F 55 °F 40 °F (1964)
Degree Days  
Heating Degree Days 8    
Growing Degree Days 6 (Base 50)    
Moisture  
Dew Point 50 °F    
Average Humidity 81    
Maximum Humidity 100    
Minimum Humidity 46    
Precipitation  
Precipitation 0.00 in - - ()
Sea Level Pressure  
Sea Level Pressure 30.02 in    
Wind  
Wind Speed 2 mph (WNW)    
Max Wind Speed 14 mph    
Max Gust Speed 18 mph    
Visibility 8 miles    
Events Fog    
Averages and records for this station are not official NWS values.
T = Trace of Precipitation, MM = Missing Value Source: NWS Daily Summary

Daily Weather History Graph

Daily Weather History Graph

Search for Another Location

Airport or City:

Trip Planner

Search our weather history database for the weather conditions in past years. The results will help you decide how hot, cold, wet, or windy it might be!

Date:

Astronomy

Aug. 08, 2013 Rise Set
Actual Time 6:11 AM CDT 8:54 PM CDT
Civil Twilight 5:35 AM CDT 9:30 PM CDT
Nautical Twilight 4:49 AM CDT 10:15 PM CDT
Astronomical Twilight 3:54 AM CDT 11:09 PM CDT
Moon 8:14 AM CDT (8/8) 9:16 PM CDT (8/8)
Length of Visible Light 15h 54m
Length of Day
14h 43m
Waxing Crescent, 3% of the Moon is Illuminated
Aug 8
Waxing Crescent
Aug 14
First Quarter
Aug 20
Full
Aug 28
Last Quarter
Sep 5
New

Hourly Weather History & Observations

Time (CDT) Temp. Dew Point Humidity Pressure Visibility Wind Dir Wind Speed Gust Speed Precip Events Conditions
12:13 AM 50.0 °F 50.0 °F 100% 30.04 in 10.0 mi Calm Calm - N/A   Clear
12:33 AM 48.2 °F 48.2 °F 100% 30.04 in 3.0 mi Calm Calm - N/A   Clear
12:53 AM 48.2 °F 48.2 °F 100% 30.04 in 10.0 mi Calm Calm - N/A   Clear
1:13 AM 48.2 °F 46.4 °F 93% 30.03 in 1.0 mi Calm Calm - N/A   Mist
1:33 AM 48.2 °F 48.2 °F 100% 30.04 in 3.0 mi East 3.5 mph - N/A   Clear
1:53 AM 48.2 °F 46.4 °F 93% 30.04 in 10.0 mi East 3.5 mph - N/A   Clear
2:13 AM 46.4 °F 46.4 °F 100% 30.04 in 1.8 mi Calm Calm - N/A   Mostly Cloudy
2:33 AM 46.4 °F 46.4 °F 100% 30.04 in 7.0 mi Calm Calm - N/A   Clear
2:53 AM 46.4 °F 46.4 °F 100% 30.04 in 5.0 mi Calm Calm - N/A   Mostly Cloudy
3:13 AM 46.4 °F 46.4 °F 100% 30.04 in 7.0 mi Calm Calm - N/A   Scattered Clouds
3:33 AM 46.4 °F 46.4 °F 100% 30.04 in 2.5 mi Calm Calm - N/A   Mostly Cloudy
3:54 AM 46.4 °F 46.4 °F 100% 30.04 in 3.0 mi Calm Calm - N/A   Scattered Clouds
4:13 AM 46.4 °F 46.4 °F 100% 30.03 in 0.5 mi Calm Calm - N/A Fog Fog
4:33 AM 44.6 °F 44.6 °F 100% 30.04 in 0.8 mi Calm Calm - N/A   Overcast
4:53 AM 48.2 °F 48.2 °F 100% 30.04 in 7.0 mi Calm Calm - N/A   Overcast
5:13 AM 46.4 °F 46.4 °F 100% 30.03 in 1.5 mi Calm Calm - N/A   Overcast
5:33 AM 46.4 °F 46.4 °F 100% 30.03 in 1.5 mi Calm Calm - N/A   Overcast
5:53 AM 46.4 °F 46.4 °F 100% 30.03 in 2.0 mi Calm Calm - N/A   Overcast
6:13 AM 46.4 °F 46.4 °F 100% 30.03 in 7.0 mi Calm Calm - N/A   Scattered Clouds
6:33 AM 46.4 °F 46.4 °F 100% 30.03 in 2.5 mi Calm Calm - N/A   Mostly Cloudy
6:53 AM 48.2 °F 48.2 °F 100% 30.03 in 1.2 mi Calm Calm - N/A   Overcast
7:13 AM 48.2 °F 48.2 °F 100% 30.03 in 10.0 mi Calm Calm - N/A   Overcast
7:33 AM 50.0 °F 50.0 °F 100% 30.03 in 10.0 mi Calm Calm - N/A   Mostly Cloudy
7:53 AM 51.8 °F 51.8 °F 100% 30.03 in 10.0 mi Calm Calm - N/A   Overcast
8:13 AM 53.6 °F 53.6 °F 100% 30.03 in 10.0 mi Calm Calm - N/A   Overcast
8:33 AM 53.6 °F 53.6 °F 100% 30.04 in 10.0 mi Calm Calm - N/A   Overcast
8:53 AM 53.6 °F 53.6 °F 100% 30.04 in 10.0 mi Calm Calm - N/A   Overcast
9:12 AM 55.4 °F 53.6 °F 94% 30.04 in 10.0 mi Calm Calm - N/A   Overcast
9:33 AM 55.4 °F 53.6 °F 94% 30.04 in 10.0 mi South 3.5 mph - N/A   Overcast
9:53 AM 57.2 °F 53.6 °F 88% 30.05 in 10.0 mi South 4.6 mph - N/A   Overcast
10:12 AM 55.4 °F 53.6 °F 94% 30.05 in 10.0 mi Calm Calm - N/A   Overcast
10:33 AM 57.2 °F 53.6 °F 88% 30.05 in 10.0 mi South 4.6 mph - N/A   Overcast
10:53 AM 57.2 °F 53.6 °F 88% 30.05 in 10.0 mi South 6.9 mph - N/A   Overcast
11:13 AM 60.8 °F 51.8 °F 72% 30.05 in 10.0 mi South 4.6 mph - N/A   Overcast
11:33 AM 60.8 °F 50.0 °F 68% 30.05 in 10.0 mi South 4.6 mph - N/A   Overcast
11:53 AM 62.6 °F 51.8 °F 68% 30.04 in 10.0 mi South 6.9 mph - N/A   Scattered Clouds
12:13 PM 62.6 °F 51.8 °F 68% 30.04 in 10.0 mi SSW 5.8 mph - N/A   Scattered Clouds
12:33 PM 62.6 °F 53.6 °F 72% 30.04 in 10.0 mi SW 5.8 mph - N/A   Scattered Clouds
12:53 PM 62.6 °F 53.6 °F 72% 30.03 in 10.0 mi Calm Calm - N/A   Clear
1:13 PM 64.4 °F 53.6 °F 68% 30.03 in 10.0 mi Calm Calm - N/A   Clear
1:33 PM 64.4 °F 51.8 °F 64% 30.03 in 10.0 mi WNW 4.6 mph - N/A   Clear
1:53 PM 66.2 °F 53.6 °F 64% 30.03 in 10.0 mi SSW 3.5 mph - N/A   Clear
2:13 PM 66.2 °F 51.8 °F 60% 30.03 in 10.0 mi WNW 5.8 mph - N/A   Scattered Clouds
2:33 PM 66.2 °F 51.8 °F 60% 30.02 in 10.0 mi West 4.6 mph - N/A   Scattered Clouds
2:53 PM 66.2 °F 51.8 °F 60% 30.02 in 10.0 mi NW 8.1 mph - N/A   Mostly Cloudy
3:13 PM 68.0 °F 50.0 °F 52% 30.02 in 10.0 mi NNW 8.1 mph - N/A   Scattered Clouds
3:33 PM 69.8 °F 48.2 °F 46% 30.01 in 10.0 mi NNW 13.8 mph - N/A   Clear
3:53 PM 69.8 °F 48.2 °F 46% 30.01 in 10.0 mi WNW 10.4 mph - N/A   Clear
4:13 PM 68.0 °F 46.4 °F 46% 30.01 in 10.0 mi NNW 9.2 mph 16.1 mph N/A   Scattered Clouds
4:33 PM 68.0 °F 48.2 °F 49% 30.00 in 10.0 mi NNW 11.5 mph 18.4 mph N/A   Scattered Clouds
4:53 PM 68.0 °F 48.2 °F 49% 30.00 in 10.0 mi NW 12.7 mph 17.3 mph N/A   Scattered Clouds
5:13 PM 68.0 °F 48.2 °F 49% 30.00 in 10.0 mi NNW 12.7 mph - N/A   Scattered Clouds
5:33 PM 68.0 °F 48.2 °F 49% 30.00 in 10.0 mi NW 11.5 mph 17.3 mph N/A   Scattered Clouds
5:53 PM 69.8 °F 48.2 °F 46% 30.00 in 10.0 mi NNW 10.4 mph - N/A   Scattered Clouds
6:13 PM 68.0 °F 48.2 °F 49% 30.00 in 10.0 mi NNW 10.4 mph - N/A   Scattered Clouds
6:33 PM 66.2 °F 46.4 °F 49% 30.00 in 10.0 mi NW 11.5 mph 18.4 mph N/A   Scattered Clouds
6:53 PM 66.2 °F 46.4 °F 49% 30.00 in 10.0 mi NW 10.4 mph - N/A   Mostly Cloudy
7:13 PM 64.4 °F 48.2 °F 56% 30.00 in 10.0 mi NW 6.9 mph - N/A   Scattered Clouds
7:33 PM 64.4 °F 48.2 °F 56% 30.00 in 10.0 mi NW 6.9 mph - N/A   Scattered Clouds
7:53 PM 64.4 °F 50.0 °F 59% 30.00 in 10.0 mi NNW 5.8 mph - N/A   Clear
8:13 PM 62.6 °F 51.8 °F 68% 30.00 in 10.0 mi NNW 3.5 mph - N/A   Clear
8:33 PM 60.8 °F 51.8 °F 72% 30.00 in 10.0 mi Calm Calm - N/A   Clear
8:53 PM 59.0 °F 51.8 °F 77% 30.00 in 10.0 mi NW 4.6 mph - N/A   Clear
9:13 PM 57.2 °F 51.8 °F 82% 30.00 in 10.0 mi WNW 3.5 mph - N/A   Clear
9:33 PM 55.4 °F 51.8 °F 88% 30.00 in 10.0 mi Calm Calm - N/A   Clear
9:53 PM 53.6 °F 51.8 °F 94% 30.00 in 10.0 mi Calm Calm - N/A   Clear
10:13 PM 53.6 °F 50.0 °F 88% 30.00 in 10.0 mi Calm Calm - N/A   Clear
10:33 PM 51.8 °F 50.0 °F 94% 30.00 in 10.0 mi Calm Calm - N/A   Scattered Clouds
10:53 PM 53.6 °F 51.8 °F 94% 30.01 in 10.0 mi Calm Calm - N/A   Mostly Cloudy
11:13 PM 53.6 °F 51.8 °F 94% 30.01 in 10.0 mi West 3.5 mph - N/A   Overcast
11:33 PM 55.4 °F 51.8 °F 88% 30.01 in 10.0 mi Calm Calm - N/A   Overcast
11:53 PM 55.4 °F 53.6 °F 94% 30.01 in 10.0 mi WSW 6.9 mph - N/A   Overcast